sat.trackr.live / text

‹ back to catalog

STARLINK-32451

NORAD 61857 · 2024-202N

PAYLOAD ACTIVE UNKNOWN

§ Identity

Operator
Country
US
Launch date
2024-11-07
Launch site
AFETR
Launch vehicle
Mass (kg)
RCS (m²)

Purposes: comms

External: N2YO · Heavens-Above · Gunter

§ Orbital elements

Epoch: 2026-09-21T22:50:59.423424Z

Period
94.27 min
Inclination
43.0003°
Eccentricity
0.0000615
Mean motion
15.27574409 rev/d
Perigee alt
482.6 km
Apogee alt
483.5 km
Semi-major
6,861.2 km
B*
5.6809e-8
RAAN
209.5825°
Arg perigee
271.0514°
Mean anomaly
89.0267°
Rev number
10,535

§ Raw data

STARLINK-324511 61857U 24202N   26264.95207666 -.00000260  00000+0  56809-7 0  99912 61857  43.0003 209.5825 0000615 271.0514  89.0267 15.27574409105352

JSON: /api/v1/satellites/61857 · /tle

For live sub-satellite position, see the globe view (requires WebGL).

§ Visibility from observer

Set your observer location to see the next 7 days of passes ≥ 10°. The values pass through the URL so the page stays shareable.

No JS? Fill the form by hand. The geolocation button needs JavaScript.